Regional Weather Roundup
Issued by NWS

Home | Current Version | Previous Version | Text Only | Print | Product List | Glossary On
Versions: 1 2 3 4 5 6 7 8 9 10 11 12 13 14 15 16 17 18 19 20 21 22 23 24 25 26 27
000
ASUS46 KPQR 251310
RWROR

OREGON REGIONAL WEATHER ROUNDUP
NATIONAL WEATHER SERVICE PORTLAND OR
600 AM PDT WED MAY 25 2016

NOTE: "FAIR" INDICATES FEW OR NO CLOUDS BELOW 12,000 FEET WITH
NO SIGNIFICANT WEATHER AND/OR OBSTRUCTIONS TO VISIBILITY.

ORZ001>013-251400-
NORTHWEST OREGON


CITY           SKY/WX    TMP DP  RH WIND       PRES   REMARKS
ASTORIA        CLOUDY    55  50  83 NW8       30.12R
NEWPORT        MOCLDY    54  50  87 CALM      30.17R
PORTLAND       CLOUDY    55  47  74 NW3       30.12R
VANCOUVER WA   CLOUDY    55  47  74 NW3       30.11R
SCAPPOOSE      CLOUDY    49  46  90 CALM      30.11R
HILLSBORO      CLOUDY    53  45  74 W5        30.11R
AURORA         CLOUDY    52  48  86 S3        30.13R
MCMINNVILLE    CLOUDY    52  47  83 CALM      30.12R
SALEM          CLOUDY    54  47  77 CALM      30.11R
CORVALLIS        N/A     52  46  82 SW3       30.14R
EUGENE         CLOUDY    52  48  86 SE3       30.14R
$$

ORZ021-028-251400-
SOUTHWEST OREGON


CITY           SKY/WX    TMP DP  RH WIND       PRES   REMARKS
NORTH BEND     CLOUDY    54  52  94 CALM      30.17R
BROOKINGS      CLOUDY    53  50  89 CALM      30.13R
ROSEBURG       CLOUDY    55  45  68 CALM      30.14R
SEXTON SUMMIT  FOG       44  43  96 N9        30.10S VSB<1/4
MEDFORD        CLOUDY    52  45  77 N5        30.09R
$$

ORZ014>016-041-251400-
COLUMBIA GORGE


CITY           SKY/WX    TMP DP  RH WIND       PRES   REMARKS
TROUTDALE      CLOUDY    56  46  69 CALM      30.11R
THE DALLES     CLEAR     57  47  69 CALM      30.02R
$$

ORZ029>031-041-044-049-050-061>064-502-503-505>511-251400-
EASTERN OREGON


CITY           SKY/WX    TMP DP  RH WIND       PRES   REMARKS
REDMOND        CLOUDY    49  42  77 SW3       30.06R
BEND           CLOUDY    46  41  81 SW5       30.06R
PRINEVILLE     CLOUDY    46  45  93 CALM      30.06R
KLAMATH FALLS  PTCLDY    37  35  92 CALM      30.09R
LAKEVIEW       CLOUDY    43  37  81 NW8       30.09R
HERMISTON      CLEAR     52  44  74 S5        29.99R
PENDLETON      CLEAR     48  42  80 SE6       30.01R
JOHN DAY       CLOUDY    49  42  78 SW3       30.05R
MEACHAM        CLEAR     32  29  88 CALM      30.03R
LA GRANDE      CLEAR     37  28  70 CALM      30.01R
BAKER CITY     CLEAR     39  35  86 CALM      30.02R
BURNS          CLOUDY    44  38  79 W6        30.04R
ROME             N/A     50  44  80 CALM      30.01R
ONTARIO        PTCLDY    54  41  61 NW6       29.99R
$$




USA.gov is the U.S. government's official web portal to all federal, state and local government web resources and services.